Надежный

Россия / Забайкальский край     50°01′37″N   111°49′28″E
темп.,
°C
ветер,
м/с
пор.,
м/с
влажн.,
%
обл.,
%
осадки,
мм/ч
давл.,
гПа
погр.,
м
19 мая, ср
ср1900:00+3сз116999 0.0 100611
03:00+3ююв2268100 0.0 100459
06:00+3ссз2393100 3.0 1002133
09:00+5с1190100 5.5 1000244
12:00+7сз3681100 2.8 1001794
15:00+12сз364946 2.8 9991660
18:00+12сз4649100 0.1 10001668
21:00+7сз22665 0.1 100215
20 мая, чт
чт2000:00+4сз1178100 0.0 100410
03:00+3с1182100 0.0 100310
06:00+4в1179100 0.0 100214
09:00+10ю2558100 0.1 999587
12:00+17ю484093 0.0 9951503
15:00+20ююз2728100 0.0 9932911
18:00+12сз2479100 1.3 995218
21:00+8ссв019572 5.9 99510
21 мая, пт
пт2100:00+7в119496 0.0 99411
03:00+6сз1193100 0.0 99311
06:00+6ююз009323 0.0 99210
09:00+13з01703 0.0 990263
12:00+20ссз3438100 0.0 9891468
15:00+16ссз5757100 0.3 9931048
18:00+16сз584745 0.3 9951318
21:00+9ссз4871100 0.3 999636
22 мая, сб
сб2200:00+5с3985100 0.3 1002855
03:00+3ссз3988100 1.7 1005867
06:00+1сз3990100 0.6 1007704
09:00+1сз4878100 0.8 10071062
12:00+4сз5865100 0.1 10081387
15:00+5ссз5858100 0.3 10081518
18:00+6ссз4747100 0.1 10081850
21:00+2сз2785100 0.3 1012524
23 мая, вс
вс2300:00+1сз4983100 0.2 1013882
03:00−1сз310825 0.3 1015706
06:00−1сз41273100 0.0 1016850
09:00+2сз61360100 0.0 10151263
12:00+5ссз6837100 0.1 10142301
15:00+7сз5832100 0.1 10122766
18:00+6сз5104199 0.1 10131909
21:00+2зсз24597 0.1 101691